www.pogodaiklimat.ru

Погода и климат >> Архив погоды >> Великобритания >> Троскоед


ПОГОДА в Троскоеде

  • Прогноз погоды в Троскоеде
  • Монитор погоды в Троскоеде

АРХИВ ПОГОДЫ в Троскоеде

Время (UTC), дата Ветер
(напр.,м/с)
 
Видим.   Явления Облачность Т
(С)
Тd
(С)
f
(%)
Тe
(С)
Тes
(С)
Комфортность P
(гПа)
Po
(гПа)
Тmin
(С)
Tmax
(С)
R
(мм)
R24
(мм)
S
(см)
16 13.09 СЗ 3 20 км н/о +17.4 +10.2 63 +17 +17 1036.1 1028.5
17 13.09 СЗ 2 40 км н/о +16.8 +9.8 63 +17 +17 1036.0 1028.4
18 13.09 СЗ 2 30 км н/о +15.2 +10.2 72 +15 +15 1036.0 1028.3 +18.0
19 13.09 З 1 27 км н/о +11.5 +9.1 85 +12 +12 1036.5 1028.7
20 13.09 Ю 1 6000 м дым н/о +9.4 +8.4 93 +10 +10 1036.7 1028.9
21 13.09 Ю 1 9000 м дымка н/о +8.2 +7.7 97 +8 +8 1036.7 1028.8
22 13.09 штиль 0 12 км дымка н/о +7.7 +7.4 98 +7 +7 1036.8 1028.9
23 13.09 штиль 0 11 км дымка н/о +6.3 +5.7 96 +5 +5 1036.8 1028.8
00 14.09 С 2 25 км н/о +6.7 +6.4 98 +5 +5 1036.0 1028.1
01 14.09 ЮВ 1 20 км н/о +6.1 +5.6 97 +6 +6 1036.2 1028.3
02 14.09 штиль 0 23 км н/о +5.9 +5.7 99 +5 +5 1035.9 1028.0
03 14.09 штиль 0 21 км н/о +4.8 +4.3 97 +4 +4 1035.3 1027.4
04 14.09 ЮВ 1 19 км н/о +5.4 +5.2 99 +5 +5 1034.7 1026.7
05 14.09 штиль 0 11 км н/о +5.6 +5.5 99 +4 +4 1034.8 1026.8
06 14.09 штиль 0 22 км н/о +5.3 +5.2 99 +4 +4 1034.4 1026.5 +4.2
07 14.09 В 1 28 км н/о +7.4 +7.4 100 +6 +6 1033.7 1025.8
08 14.09 штиль 0 30 км н/о +11.5 +11.2 98 +11 +11 1033.7 1025.9
09 14.09 ЮВ 3 30 км н/о +16.3 +10.3 68 +16 +16 1033.1 1025.4
10 14.09 Ю 4 25 км н/о +17.2 +11.1 67 +17 +17 1033.0 1025.4
11 14.09 Ю 3 40 км н/о +18.7 +11.7 64 +20 +20 1032.6 1025.0
12 14.09 Ю 3 29 км н/о +19.7 +12.7 64 +22 +22 комфорт 1031.9 1024.4 0.2
13 14.09 З 3 45 км н/о +21.1 +12.1 56 +23 +23 комфорт 1031.3 1023.8
14 14.09 З 4 21 км н/о +19.7 +12.7 64 +21 +21 комфорт 1030.6 1023.1
15 14.09 З 4 20 км н/о +19.5 +13.0 66 +21 +21 комфорт 1029.9 1022.4
16 14.09 З 5 30 км н/о +19.0 +12.6 66 +20 +20 1029.6 1022.1
17 14.09 З 4 35 км н/о +18.3 +12.8 70 +19 +19 1029.2 1021.7
18 14.09 З 2 25 км н/о +16.5 +12.7 78 +17 +17 1028.9 1021.3 +21.1 0.2
19 14.09 С 2 23 км н/о +12.8 +11.1 89 +12 +12 1028.7 1021.0
20 14.09 Ю 1 12 км н/о +10.2 +9.0 92 +11 +11 1029.2 1021.4
21 14.09 Ю 2 6000 м в посл. час туман н/о +9.0 +8.5 97 +7 +7 1029.0 1021.2
22 14.09 ЮВ 1 5000 м дымка н/о +9.0 +8.8 99 +8 +8 1028.7 1020.9
23 14.09 штиль 0 6000 м дымка н/о +8.5 +8.2 98 +7 +7 1028.3 1020.5
00 15.09 СВ 1 10 км дымка н/о +8.4 +8.3 99 +8 +8 1028.0 1020.2
01 15.09 штиль 0 6000 м в посл. час туман н/о +8.2 +8.0 99 +7 +7 1027.5 1019.7
02 15.09 Ю 2 15 км н/о +10.7 +10.7 100 +10 +10 1027.1 1019.3
03 15.09 Ю 2 16 км н/о +11.5 +11.1 97 +11 +11 1026.5 1018.7
04 15.09 Ю 2 22 км н/о +12.2 +11.3 94 +11 +11 1026.1 1018.4
05 15.09 Ю 2 17 км н/о +12.3 +11.4 94 +11 +11 1025.6 1017.9
06 15.09 ЮВ 2 26 км н/о +13.0 +11.6 91 +12 +12 1025.5 1017.8 +7.8
07 15.09 Ю 2 26 км н/о +13.5 +12.1 91 +13 +13 1025.4 1017.8
08 15.09 ЮВ 2 40 км н/о +14.2 +12.4 89 +14 +14 1025.6 1018.0
09 15.09 ЮВ 2 24 км н/о +15.0 +13.2 89 +15 +15 1026.0 1018.3
10 15.09 ЮВ 2 35 км н/о +16.2 +14.4 89 +17 +17 1025.6 1018.0
11 15.09 С 1 30 км н/о +17.6 +15.0 85 +19 +19 1025.4 1017.9
12 15.09 З 4 35 км н/о +18.3 +14.8 80 +19 +19 1025.4 1017.9
13 15.09 З 4 50 км н/о +18.8 +15.2 80 +20 +20 1025.3 1017.8
14 15.09 З 4 30 км н/о +20.0 +16.0 78 +23 +23 комфорт 1024.5 1017.0
15 15.09 З 4 40 км н/о +18.4 +14.5 78 +19 +19 1024.5 1016.9
16 15.09 З 3 40 км н/о +17.6 +14.6 83 +18 +18 1024.1 1016.5
17 15.09 З 4 40 км н/о +16.7 +14.2 85 +16 +16 1023.9 1016.3
18 15.09 ЮЗ 2 30 км н/о +16.1 +14.4 90 +16 +16 1023.8 1016.2 +20.2
19 15.09 ЮЗ 1 35 км н/о +15.9 +14.2 90 +17 +17 1023.5 1015.9
20 15.09 Ю 1 45 км н/о +15.6 +14.0 90 +16 +16 1023.6 1016.0
21 15.09 Ю 1 35 км н/о +15.5 +14.0 91 +16 +16 1023.7 1016.1
22 15.09 Ю 2 50 км в посл. час дождь н/о +15.6 +13.9 90 +16 +16 1023.7 1016.1
23 15.09 ЮВ 1 28 км слаб. ливневой дождь н/о +15.1 +14.1 94 +16 +16 1023.3 1015.7
00 16.09 Ю 1 23 км слаб. ливневой дождь н/о +15.2 +14.2 94 +16 +16 1023.1 1015.5 0.0
01 16.09 ЮЗ 3 12 км слаб. морось н/о +15.4 +14.7 96 +15 +15 1022.9 1015.3
02 16.09 Ю 1 2800 м морось н/о +15.3 +14.9 97 +16 +16 1022.6 1015.0
03 16.09 Ю 1 3300 м сильн. морось н/о +15.3 +15.1 99 +16 +16 1022.1 1014.5
04 16.09 СЗ 1 6000 м слаб. дождь н/о +15.5 +15.3 99 +16 +16 1021.7 1014.1
05 16.09 З 2 3200 м слаб. морось н/о +15.5 +15.2 98 +16 +16 1021.4 1013.8
06 16.09 З 2 2300 м дождь н/о +15.4 +15.2 99 +15 +15 1021.5 1013.9 +15.1 7
07 16.09 СЗ 3 1900 м морось н/о +15.4 +15.2 99 +15 +15 1021.7 1014.2
08 16.09 СЗ 2 2200 м в посл. час дождь н/о +15.8 +15.7 99 +16 +16 1022.0 1014.4
09 16.09 СЗ 4 15 км н/о +16.0 +15.8 99 +15 +15 1022.3 1014.7
10 16.09 З 3 3900 м дымка н/о +16.4 +16.1 98 +16 +16 1022.5 1014.9
11 16.09 З 3 26 км н/о +16.7 +15.4 92 +16 +16 1022.8 1015.2
12 16.09 СЗ 3 45 км н/о +17.6 +15.6 88 +18 +18 1022.8 1015.2 3
13 16.09 З 4 27 км н/о +17.9 +14.8 82 +18 +18 1023.0 1015.5
14 16.09 З 3 45 км н/о +17.8 +14.5 81 +18 +18 1022.9 1015.4
15 16.09 З 3 45 км н/о +18.1 +13.4 74 +18 +18 1022.9 1015.4
16 16.09 З 3 45 км н/о +18.0 +13.9 77 +18 +18 1022.8 1015.2
17 16.09 З 2 40 км н/о +17.9 +13.7 76 +19 +19 1023.0 1015.5
18 16.09 ЮЗ 1 50 км н/о +16.4 +13.4 82 +18 +18 1023.3 1015.7 +18.6 3
19 16.09 В 3 26 км н/о +15.2 +12.8 86 +15 +15 1023.9 1016.3
20 16.09 В 1 50 км н/о +14.5 +12.0 85 +15 +15 1024.2 1016.6
21 16.09 СВ 1 40 км н/о +13.5 +10.8 84 +14 +14 1024.6 1017.0
22 16.09 С 2 35 км н/о +12.6 +10.0 84 +12 +12 1024.9 1017.2
23 16.09 ЮЗ 1 45 км н/о +12.0 +9.8 86 +12 +12 1025.3 1017.6
00 17.09 З 1 45 км н/о +11.5 +9.6 88 +12 +12 1025.5 1017.7
01 17.09 СЗ 1 27 км н/о +8.1 +6.6 90 +8 +8 1025.6 1017.8
02 17.09 штиль 0 20 км н/о +7.4 +7.1 98 +6 +6 1025.8 1018.0
03 17.09 штиль 0 н/о н/о +5.9 +5.3 96 +5 +5 1026.0 1018.1
04 17.09 С 1 18 км в посл. час туман н/о +5.6 +5.4 99 +4 +4 1026.1 1018.2
05 17.09 штиль 0 2000 м в посл. час туман н/о +5.1 +4.8 98 +4 +4 1026.1 1018.2
06 17.09 штиль 0 400 м туман н/о +4.4 +4.2 99 +3 +3 1026.7 1018.8 +4.4
07 17.09 С 1 16 км в посл. час туман н/о +5.4 +5.4 100 +5 +5 1027.2 1019.3
08 17.09 штиль 0 30 км н/о +7.9 +7.9 100 +7 +7 1027.3 1019.5
09 17.09 ЮВ 1 28 км н/о +12.1 +9.7 85 +13 +13 1027.4 1019.7
10 17.09 СЗ 3 26 км н/о +13.7 +8.2 69 +13 +13 1027.6 1019.9
11 17.09 СЗ 2 28 км н/о +15.5 +9.0 65 +16 +16 1027.4 1019.7
12 17.09 СЗ 4 24 км н/о +16.5 +8.5 59 +16 +16 1027.3 1019.7
13 17.09 СЗ 4 40 км н/о +15.9 +9.3 65 +15 +15 1027.2 1019.6
14 17.09 СЗ 3 25 км н/о +16.7 +9.8 64 +17 +17 1027.0 1019.4
15 17.09 СЗ 4 35 км н/о +16.8 +9.9 64 +16 +16 1027.1 1019.5
16 17.09 СЗ 4 30 км н/о +16.4 +9.1 62 +16 +16 1026.9 1019.3
17 17.09 СЗ 4 24 км н/о +16.1 +9.7 66 +16 +16 1027.0 1019.4
18 17.09 СЗ 3 28 км н/о +14.9 +9.5 70 +14 +14 1027.0 1019.4 +17.1
19 17.09 штиль 0 20 км н/о +10.2 +8.2 87 +9 +9 1027.7 1020.0
20 17.09 ЮЗ 1 14 км н/о +8.7 +7.5 92 +9 +9 1028.2 1020.4
21 17.09 Ю 1 21 км н/о +9.0 +8.7 98 +8 +8 1028.8 1021.0
22 17.09 Ю 1 21 км н/о +7.6 +6.9 95 +8 +8 1029.2 1021.3
23 17.09 штиль 0 22 км н/о +7.3 +6.9 97 +6 +6 1029.3 1021.4
00 18.09 ЮВ 1 19 км н/о +6.5 +6.2 98 +5 +5 1029.4 1021.5
01 18.09 штиль 0 12 км н/о +4.9 +4.2 95 +4 +4 1029.5 1021.6
02 18.09 ЮВ 1 16 км н/о +5.1 +4.8 98 +5 +5 1029.6 1021.7
03 18.09 штиль 0 11 км н/о +4.9 +4.8 99 +4 +4 1029.5 1021.5
04 18.09 штиль 0 15 км н/о +4.2 +3.9 98 +3 +3 1029.7 1021.8
05 18.09 ЮВ 1 18 км н/о +3.9 +3.8 99 +3 +3 1029.9 1021.9
06 18.09 штиль 0 15 км н/о +3.4 +3.3 99 +2 +2 1030.1 1022.1 +3.4
07 18.09 ЮВ 1 16 км н/о +4.9 +4.9 100 +5 +5 1030.3 1022.4
08 18.09 штиль 0 30 км н/о +8.7 +8.7 100 +8 +8 1030.7 1022.8
09 18.09 штиль 0 28 км н/о +13.1 +9.3 78 +13 +13 1030.9 1023.2
10 18.09 З 1 26 км н/о +15.3 +7.0 58 +17 +17 1030.6 1023.0
11 18.09 З 1 50 км н/о +17.4 +6.9 50 +18 +18 1030.6 1023.0
12 18.09 СЗ 2 40 км н/о +18.2 +7.3 49 +19 +19 1030.5 1022.9
13 18.09 З 4 26 км н/о +17.9 +8.8 55 +18 +18 1030.3 1022.7
14 18.09 З 3 40 км н/о +18.1 +8.6 54 +18 +18 1030.2 1022.7
15 18.09 З 3 30 км н/о +17.9 +8.6 54 +18 +18 1030.0 1022.5
16 18.09 З 3 30 км н/о +17.7 +8.8 56 +18 +18 1029.8 1022.2
17 18.09 З 2 27 км н/о +16.7 +8.7 59 +17 +17 1029.9 1022.3
18 18.09 З 1 50 км н/о +15.2 +8.7 65 +16 +16 1030.0 1022.3 +18.8
19 18.09 Ю 1 30 км н/о +10.1 +6.9 81 +11 +11 1030.6 1022.9
20 18.09 штиль 0 28 км н/о +7.8 +6.3 90 +7 +7 1031.3 1023.5
21 18.09 штиль 0 24 км н/о +7.1 +6.5 96 +6 +6 1031.6 1023.7
22 18.09 штиль 0 24 км н/о +6.7 +6.2 97 +6 +6 1031.7 1023.8
23 18.09 штиль 0 17 км н/о +5.9 +5.4 97 +5 +5 1031.7 1023.8
00 19.09 Ю 1 13 км дымка н/о +6.6 +6.4 99 +6 +6 1031.6 1023.7
01 19.09 штиль 0 15 км н/о +6.6 +6.5 99 +5 +5 1031.5 1023.6
02 19.09 ЮВ 1 8000 м дымка н/о +6.5 +6.4 99 +6 +6 1031.3 1023.4
03 19.09 штиль 0 14 км в посл. час туман н/о +6.4 +6.3 99 +5 +5 1031.2 1023.3
04 19.09 штиль 0 2200 м дымка н/о +5.6 +5.4 99 +4 +4 1031.1 1023.2
05 19.09 штиль 0 7000 м в посл. час туман н/о +5.7 +5.6 99 +5 +5 1031.2 1023.3
06 19.09 штиль 0 7000 м в посл. час туман н/о +5.7 +5.6 99 +5 +5 1031.5 1023.6 +5.1
07 19.09 штиль 0 12 км дымка н/о +5.8 +5.8 100 +5 +5 1031.7 1023.8
08 19.09 штиль 0 40 км н/о +9.6 +9.6 100 +9 +9 1032.0 1024.2
09 19.09 штиль 0 35 км н/о +14.0 +11.2 83 +14 +14 1031.9 1024.2
10 19.09 штиль 0 30 км н/о +18.2 +10.3 60 +18 +18 1031.7 1024.1
11 19.09 З 2 40 км н/о +20.0 +11.2 57 +22 +22 комфорт 1031.4 1023.9
12 19.09 С 3 30 км н/о +19.7 +10.6 56 +21 +21 комфорт 1031.3 1023.8
13 19.09 С 3 40 км н/о +19.7 +9.4 51 +21 +21 комфорт 1030.8 1023.2
14 19.09 СЗ 3 19 км н/о +20.1 +9.7 51 +22 +22 комфорт 1030.4 1022.9
15 19.09 СЗ 3 30 км н/о +19.7 +9.2 51 +21 +21 комфорт 1030.1 1022.6
16 19.09 С 3 30 км н/о +19.2 +8.9 51 +20 +20 1029.6 1022.1
17 19.09 СЗ 3 35 км н/о +18.5 +8.8 53 +19 +19 1029.6 1022.0
18 19.09 СЗ 1 35 км н/о +17.5 +10.4 63 +19 +19 1029.4 1021.8 +20.8
19 19.09 Ю 1 28 км н/о +11.5 +8.4 81 +12 +12 1029.7 1022.0
20 19.09 штиль 0 13 км н/о +8.8 +7.4 91 +8 +8 1029.9 1022.0
21 19.09 штиль 0 18 км н/о +8.2 +7.5 95 +7 +7 1029.8 1021.9
22 19.09 штиль 0 17 км н/о +7.4 +6.8 96 +6 +6 1029.8 1022.0
23 19.09 штиль 0 9000 м дымка н/о +8.2 +8.2 100 +7 +7 1029.3 1021.5
00 20.09 ЮВ 1 8000 м дымка н/о +8.0 +8.0 100 +7 +7 1028.9 1021.1
01 20.09 штиль 0 12 км дымка н/о +7.3 +7.2 99 +6 +6 1028.7 1020.9
02 20.09 ЮВ 1 10 км дымка н/о +7.9 +7.9 100 +8 +8 1028.4 1020.5
03 20.09 Ю 1 11 км н/о +7.8 +7.8 100 +8 +8 1027.6 1019.7
04 20.09 ЮЗ 1 12 км н/о +7.5 +7.4 99 +7 +7 1027.1 1019.3
05 20.09 ЮВ 2 30 км н/о +10.6 +9.0 90 +9 +9 1026.2 1018.5
06 20.09 ЮВ 4 50 км н/о +13.4 +9.0 75 +12 +12 1025.7 1018.0 +6.3
07 20.09 ЮВ 1 40 км н/о +10.3 +7.7 84 +10 +10 1025.5 1017.7
08 20.09 ЮЗ 2 40 км н/о +14.9 +9.6 71 +15 +15 1024.9 1017.3
09 20.09 ЮВ 5 50 км н/о +16.7 +9.6 63 +16 +16 1024.4 1016.9
10 20.09 ЮВ 6 40 км н/о +17.5 +10.2 62 +17 +17 1024.0 1016.5
11 20.09 ЮВ 7 22 км н/о +18.3 +9.4 56 +18 +18 1023.4 1015.9
12 20.09 ЮВ 6 45 км н/о +19.4 +9.8 54 +20 +20 1022.8 1015.3
13 20.09 ЮВ 6 29 км н/о +20.1 +10.1 53 +21 +21 комфорт 1021.9 1014.4
14 20.09 ЮВ 6 35 км дым н/о +20.4 +10.4 53 +22 +22 комфорт 1021.2 1013.7
15 20.09 В 4 50 км н/о +20.7 +10.1 51 +23 +23 комфорт 1020.2 1012.8

 

Местоположение метеостанции Троскоед (Великобритания): широта 52.35 долгота -3.95 высота над уровнем моря 62 м.

В архиве по умолчанию представлена погода в Троскоеде за последнюю неделю. Архивные данные за месяц целиком и за предыдущие месяцы, начиная с января 2011 года, Вы можете получить, выбрав интересующий диапазон дат из раскрывающегося списка и нажав кнопку "Ввод!".


*Определитесь, кто Вы:
робот инопланетянин человек

Внимание! Время в таблицах - всемирное. Для получения местного времени необходимо прибавить поправку, которая равна 0 ч.

Смотрите также архив погоды в соседних городах и на ближайших метеорологических станциях:

Погода в Сеннибридже (Великобритания) (38 км)
Погода в Аберпорте (Великобритания) (49 км)
Погода на Озере Вирнви (Великобритания) (55 км)
Погода в Бала (Великобритания) (66 км)
Погода в Абердароне (Великобритания) (71 км)
Погода в Шобдоне (Великобритания) (74 км)
Погода в Пембри Сэндс (Великобритания) (76 км)
Погода в Кейпл Кериг (Великобритания) (83 км)
Погода в Хирфорде (Великобритания) (84 км)
Погода в Мамблсе (Великобритания) (87 км)

Пояснения к столбцам:

Ветер - указаны скорость ветра в м/с - средняя за 10 мин, порывы в срок и между сроками (в фигурных скобках) и направление, откуда дует ветер: С - северный, СВ - северо-восточный, В - восточный, ЮВ - юго-восточный, Ю - южный, ЮЗ - юго-западный, З - западный, СЗ - северо-западный.
Видимость - горизонтальная дальность видимости в метрах или километрах. При видимости от 1 до 10 км при отсутствии осадков обычно наблюдается дымка, при ухудшении видимости до 1 км и менее - туман. В сухую погоду видимость может ухудшаться дымом, пылью или мглою.
Явления - указаны атмосферные явления, наблюдавшиеся в срок или в последний час перед сроком; фигурными скобками обозначены явления, наблюдавшиеся между сроками (за 1-3 часа до срока); квадратными скобками обозначены град или гололедные отложения с указанием их диаметра в мм.
Облачность - указаны через наклонную черту общая и нижняя облачность в баллах и высота нижней границы облаков в метрах; квадратными скобками обозначены формы облаков: Ci - перистые, Cs - перисто-слоистые, Cc - перисто-кучевые, Ac - высококучевые, As - высокослоистые, Sc - слоисто-кучевые, Ns - слоисто-дождевые, Cu - кучевые, Cb - кучево-дождевые. Подробнее классификацию облаков см. в Атласе облаков (PDF).
T - Температура воздуха - температура, измеренная на высоте 2 м над землей.
Td - Температура точки росы - температура, при понижении до которой содержащийся в воздухе водяной пар достигнет насыщения.
f - Относительная влажность воздуха - влажноcть воздуха, измеренная на высоте 2 м над землей.
Te - Эффективная температура - температура, которую ощущает одетый по сезону человек в тени. Характеристика душности погоды. При расчете учитывается влияние влажности воздуха и скорости ветра на теплоощущения человека.
Tes - Эффективная температура на солнце - температура, которую ощущает человек, с поправкой на солнечный нагрев. Характеристика знойности погоды. Зависит от высоты солнца над горизонтом, облачности и скорости ветра. Ночью, в пасмурную погоду, а также при ветре 12 м/с и более поправка равна нулю.
P - Атмосферное давление - приведенное к уровню моря атмосферное давление.
Po - Атмосферное давление - измеренное на уровне метеостанции атмосферное давление.
Tmin - Минимальная температура - минимум температуры воздуха на высоте 2 м над землей.
Tmax - Максимальная температура - максимум температуры воздуха на высоте 2 м над землей.
R - Количество осадков - Количество выпавших осадков за период времени, мм. При наведении курсора мыши на число - период времени, за который выпало указанное количество осадков.
R24 - Количество осадков - Количество выпавших осадков за 24 часа, мм.
S - Снежный покров - Высота снежного покрова, см. При наведении курсора мыши на число - состояние снежного покрова и степень покрытия местности в баллах.